QPF
0.03 0.02 0.01 0.01 0.01 0.01 0.01 0.01 0.01 0.01 0.01 0.01 0.01 0.01 0.01 0.01 0.00 0.00 0.00 0.01 0.02 0.03 0.04 0.04 0.06 0.10 0.15 0.20 0.22 0.22 0.21 0.22 0.26 0.28 0.22 0.13 0.07 0.03 0.01 0.00 0.00 0.00 0.00
0.01 0.00 0.00 0.00 0.00 0.00 0.00 0.00 0.00 0.00 0.00 0.00 0.00 0.00 0.00 0.00 0.00 0.00 0.00 0.01 0.01 0.02 0.02 0.03 0.04 0.08 0.13 0.18 0.20 0.24 0.28 0.29 0.30 0.33 0.31 0.22 0.14 0.06 0.03 0.02 0.00 0.00 0.00
0.01 0.00 0.00 0.00 0.00 0.00 0.00 0.00 0.00 0.00 0.00 0.00 0.00 0.00 0.00 0.00 0.00 0.00 0.00 0.01 0.01 0.01 0.01 0.01 0.03 0.05 0.10 0.16 0.18 0.23 0.27 0.24 0.26 0.28 0.30 0.23 0.18 0.10 0.09 0.06 0.03 0.04 0.01
0.01 0.00 0.00 0.00 0.00 0.00 0.00 0.00 0.00 0.00 0.00 0.00 0.00 0.00 0.00 0.00 0.00 0.01 0.01 0.01 0.01 0.01 0.01 0.01 0.03 0.04 0.08 0.11 0.14 0.16 0.18 0.18 0.16 0.19 0.23 0.21 0.19 0.17 0.17 0.14 0.11 0.10 0.06
0.01 0.00 0.00 0.00 0.00 0.00 0.00 0.00 0.00 0.00 0.00 0.00 0.00 0.00 0.00 0.00 0.00 0.01 0.01 0.01 0.01 0.01 0.01 0.02 0.03 0.04 0.05 0.07 0.10 0.12 0.13 0.15 0.15 0.17 0.19 0.19 0.19 0.19 0.18 0.15 0.14 0.14 0.11
0.01 0.01 0.01 0.01 0.01 0.01 0.01 0.00 0.00 0.00 0.00 0.00 0.00 0.00 0.00 0.00 0.00 0.00 0.00 0.00 0.00 0.01 0.01 0.01 0.01 0.02 0.03 0.05 0.07 0.08 0.09 0.13 0.17 0.20 0.19 0.19 0.18 0.16 0.15 0.13 0.14 0.15 0.15
0.01 0.01 0.01 0.02 0.02 0.02 0.01 0.01 0.01 0.00 0.00 0.00 0.00 0.00 0.00 0.00 0.00 0.00 0.00 0.00 0.00 0.00 0.00 0.00 0.00 0.00 0.01 0.01 0.03 0.03 0.04 0.05 0.07 0.12 0.15 0.13 0.11 0.11 0.12 0.13 0.13 0.14 0.15
0.02 0.02 0.02 0.02 0.03 0.02 0.03 0.02 0.01 0.00 0.00 0.00 0.00 0.00 0.00 0.00 0.00 0.00 0.00 0.00 0.00 0.00 0.00 0.00 0.00 0.00 0.00 0.00 0.00 0.01 0.01 0.01 0.02 0.03 0.05 0.05 0.05 0.07 0.09 0.12 0.12 0.10 0.09
0.03 0.03 0.03 0.03 0.04 0.05 0.07 0.06 0.03 0.01 0.01 0.00 0.00 0.01 0.00 0.00 0.00 0.00 0.00 0.00 0.00 0.00 0.00 0.00 0.00 0.00 0.00 0.00 0.00 0.00 0.00 0.00 0.00 0.00 0.01 0.02 0.03 0.04 0.05 0.08 0.10 0.12 0.15
0.04 0.05 0.05 0.05 0.05 0.06 0.07 0.06 0.05 0.03 0.02 0.01 0.02 0.01 0.01 0.01 0.00 0.00 0.00 0.00 0.00 0.00 0.00 0.00 0.00 0.00 0.00 0.00 0.00 0.00 0.00 0.00 0.00 0.00 0.00 0.00 0.01 0.01 0.02 0.03 0.05 0.08 0.13
0.04 0.05 0.06 0.05 0.04 0.05 0.06 0.07 0.05 0.04 0.04 0.03 0.02 0.02 0.02 0.01 0.01 0.00 0.00 0.00 0.00 0.00 0.00 0.00 0.00 0.00 0.00 0.00 0.00 0.00 0.00 0.00 0.00 0.00 0.00 0.00 0.00 0.00 0.00 0.00 0.01 0.02 0.04
0.04 0.04 0.05 0.04 0.04 0.05 0.07 0.07 0.06 0.06 0.07 0.06 0.04 0.04 0.03 0.03 0.01 0.00 0.00 0.00 0.00 0.00 0.00 0.00 0.00 0.00 0.00 0.00 0.00 0.00 0.00 0.00 0.00 0.00 0.00 0.00 0.00 0.00 0.00 0.00 0.00 0.00 0.01
0.06 0.06 0.05 0.06 0.05 0.06 0.06 0.07 0.07 0.07 0.08 0.08 0.06 0.05 0.04 0.05 0.03 0.01 0.00 0.00 0.00 0.00 0.00 0.00 0.00 0.00 0.00 0.00 0.00 0.00 0.00 0.00 0.00 0.00 0.00 0.00 0.00 0.00 0.00 0.00 0.00 0.00 0.00
0.06 0.05 0.05 0.07 0.09 0.08 0.08 0.10 0.10 0.10 0.09 0.09 0.09 0.07 0.05 0.05 0.04 0.03 0.03 0.02 0.00 0.00 0.00 0.00 0.00 0.00 0.00 0.00 0.00 0.00 0.00 0.00 0.00 0.00 0.00 0.00 0.00 0.00 0.00 0.00 0.00 0.00 0.00
0.04 0.05 0.05 0.06 0.10 0.11 0.09 0.09 0.12 0.13 0.12 0.10 0.09 0.07 0.06 0.05 0.03 0.02 0.03 0.03 0.02 0.01 0.01 0.01 0.00 0.00 0.00 0.00 0.00 0.00 0.00 0.00 0.00 0.00 0.00 0.00 0.00 0.00 0.00 0.00 0.00 0.00 0.00
0.04 0.04 0.05 0.05 0.06 0.08 0.08 0.08 0.07 0.08 0.08 0.06 0.05 0.04 0.03 0.02 0.01 0.01 0.01 0.02 0.03 0.03 0.03 0.04 0.03 0.01 0.00 0.00 0.00 0.00 0.00 0.00 0.00 0.00 0.00 0.00 0.00 0.00 0.00 0.00 0.00 0.00 0.00
0.02 0.02 0.03 0.04 0.05 0.05 0.06 0.06 0.05 0.03 0.02 0.02 0.02 0.01 0.01 0.00 0.00 0.00 0.00 0.01 0.01 0.03 0.04 0.06 0.07 0.05 0.02 0.01 0.00 0.00 0.00 0.00 0.00 0.00 0.00 0.00 0.00 0.00 0.00 0.00 0.00 0.00 0.00
0.00 0.00 0.01 0.01 0.02 0.02 0.02 0.02 0.02 0.02 0.01 0.01 0.00 0.00 0.00 0.00 0.00 0.00 0.00 0.00 0.01 0.01 0.02 0.05 0.07 0.07 0.05 0.03 0.01 0.00 0.00 0.00 0.00 0.00 0.00 0.00 0.00 0.00 0.00 0.00 0.00 0.00 0.00
0.00 0.00 0.00 0.00 0.00 0.00 0.00 0.00 0.01 0.01 0.01 0.00 0.00 0.00 0.00 0.00 0.00 0.00 0.00 0.00 0.00 0.01 0.01 0.01 0.02 0.03 0.04 0.04 0.03 0.02 0.01 0.00 0.00 0.00 0.00 0.00 0.00 0.00 0.00 0.00 0.00 0.00 0.00
0.00 0.00 0.00 0.00 0.00 0.00 0.00 0.00 0.00 0.00 0.00 0.00 0.00 0.00 0.00 0.00 0.00 0.00 0.00 0.00 0.00 0.00 0.00 0.00 0.00 0.01 0.01 0.02 0.02 0.02 0.01 0.01 0.00 0.00 0.00 0.00 0.00 0.00 0.00 0.00 0.00 0.00 0.00
0.00 0.00 0.00 0.00 0.00 0.00 0.00 0.00 0.00 0.00 0.00 0.00 0.00 0.00 0.00 0.00 0.00 0.00 0.00 0.00 0.00 0.00 0.00 0.00 0.00 0.00 0.00 0.00 0.00 0.01 0.01 0.01 0.01 0.00 0.00 0.00 0.00 0.00 0.00 0.00 0.00 0.00 0.00
0.00 0.00 0.00 0.00 0.00 0.00 0.00 0.00 0.00 0.00 0.00 0.00 0.00 0.00 0.00 0.00 0.00 0.00 0.00 0.00 0.00 0.00 0.00 0.00 0.00 0.00 0.00 0.00 0.00 0.00 0.00 0.00 0.01 0.01 0.00 0.00 0.00 0.00 0.00 0.00 0.00 0.00 0.00
0.00 0.00 0.00 0.00 0.00 0.00 0.00 0.00 0.00 0.00 0.00 0.00 0.00 0.00 0.00 0.00 0.00 0.00 0.00 0.00 0.00 0.00 0.00 0.00 0.00 0.00 0.00 0.00 0.00 0.00 0.00 0.00 0.00 0.00 0.00 0.00 0.00 0.01 0.01 0.01 0.01 0.01 0.01
0.00 0.00 0.00 0.00 0.00 0.00 0.00 0.00 0.00 0.00 0.00 0.00 0.00 0.00 0.00 0.00 0.00 0.00 0.00 0.00 0.00 0.00 0.00 0.00 0.00 0.00 0.00 0.00 0.00 0.00 0.00 0.00 0.00 0.00 0.00 0.00 0.00 0.00 0.01 0.01 0.02 0.02 0.02
0.00 0.00 0.00 0.00 0.00 0.00 0.00 0.00 0.00 0.00 0.00 0.00 0.00 0.00 0.00 0.00 0.00 0.00 0.00 0.00 0.00 0.00 0.00 0.00 0.00 0.00 0.00 0.00 0.00 0.00 0.00 0.00 0.00 0.00 0.00 0.00 0.00 0.00 0.00 0.00 0.01 0.01 0.02
0.00 0.00 0.00 0.00 0.00 0.00 0.00 0.00 0.00 0.00 0.00 0.00 0.00 0.00 0.00 0.00 0.00 0.00 0.00 0.00 0.00 0.00 0.00 0.00 0.00 0.00 0.01 0.00 0.00 0.00 0.00 0.00 0.00 0.00 0.00 0.00 0.00 0.00 0.00 0.00 0.00 0.00 0.01
MSLP
1014.16 1014.23 1014.29 1014.34 1014.39 1014.44 1014.50 1014.58 1014.66 1014.73 1014.76 1014.75 1014.67 1014.50 1014.26 1013.97 1013.63 1013.28 1012.94 1012.64 1012.39 1012.20 1012.05 1011.94 1011.86 1011.80 1011.76 1011.74 1011.73 1011.74 1011.77 1011.83 1011.91 1012.01 1012.12 1012.24 1012.38 1012.52 1012.69 1012.88 1013.09 1013.33 1013.60
1014.48 1014.52 1014.57 1014.60 1014.63 1014.67 1014.72 1014.78 1014.84 1014.90 1014.93 1014.91 1014.82 1014.66 1014.42 1014.13 1013.79 1013.44 1013.10 1012.79 1012.51 1012.28 1012.08 1011.92 1011.78 1011.66 1011.55 1011.47 1011.41 1011.39 1011.41 1011.47 1011.56 1011.69 1011.84 1012.00 1012.17 1012.33 1012.50 1012.67 1012.84 1013.02 1013.22
1014.79 1014.84 1014.88 1014.91 1014.94 1014.96 1015.00 1015.04 1015.09 1015.13 1015.14 1015.11 1015.02 1014.86 1014.63 1014.36 1014.05 1013.72 1013.40 1013.10 1012.83 1012.58 1012.36 1012.15 1011.96 1011.77 1011.60 1011.45 1011.32 1011.25 1011.22 1011.25 1011.34 1011.47 1011.63 1011.81 1012.00 1012.17 1012.33 1012.47 1012.61 1012.73 1012.86
1015.08 1015.15 1015.21 1015.24 1015.27 1015.29 1015.31 1015.34 1015.36 1015.38 1015.37 1015.32 1015.22 1015.06 1014.86 1014.61 1014.33 1014.05 1013.77 1013.51 1013.26 1013.03 1012.81 1012.58 1012.35 1012.12 1011.88 1011.66 1011.46 1011.32 1011.23 1011.22 1011.27 1011.38 1011.54 1011.72 1011.91 1012.09 1012.24 1012.36 1012.46 1012.54 1012.61
1015.37 1015.46 1015.52 1015.57 1015.59 1015.61 1015.62 1015.62 1015.62 1015.60 1015.57 1015.50 1015.38 1015.23 1015.04 1014.82 1014.58 1014.35 1014.13 1013.92 1013.72 1013.53 1013.33 1013.11 1012.87 1012.60 1012.32 1012.04 1011.78 1011.57 1011.42 1011.35 1011.36 1011.44 1011.57 1011.75 1011.93 1012.10 1012.24 1012.35 1012.42 1012.47 1012.51
1015.63 1015.74 1015.82 1015.87 1015.90 1015.90 1015.89 1015.87 1015.84 1015.79 1015.73 1015.63 1015.50 1015.33 1015.15 1014.95 1014.75 1014.57 1014.40 1014.25 1014.11 1013.97 1013.82 1013.63 1013.40 1013.13 1012.83 1012.51 1012.21 1011.94 1011.74 1011.61 1011.57 1011.60 1011.71 1011.86 1012.03 1012.19 1012.33 1012.43 1012.50 1012.53 1012.54
1015.88 1015.99 1016.08 1016.13 1016.15 1016.15 1016.13 1016.08 1016.03 1015.95 1015.85 1015.73 1015.57 1015.40 1015.21 1015.02 1014.84 1014.69 1014.56 1014.47 1014.38 1014.30 1014.20 1014.06 1013.86 1013.62 1013.33 1013.00 1012.68 1012.37 1012.12 1011.95 1011.86 1011.85 1011.92 1012.04 1012.19 1012.34 1012.48 1012.58 1012.64 1012.67 1012.68
1016.11 1016.22 1016.31 1016.36 1016.38 1016.37 1016.33 1016.28 1016.20 1016.11 1015.99 1015.84 1015.66 1015.47 1015.26 1015.07 1014.89 1014.75 1014.65 1014.59 1014.55 1014.51 1014.46 1014.37 1014.23 1014.03 1013.76 1013.46 1013.13 1012.82 1012.54 1012.33 1012.20 1012.15 1012.18 1012.26 1012.39 1012.53 1012.65 1012.76 1012.83 1012.86 1012.87
1016.32 1016.43 1016.52 1016.56 1016.58 1016.56 1016.53 1016.48 1016.40 1016.30 1016.17 1016.01 1015.82 1015.61 1015.39 1015.18 1014.99 1014.84 1014.74 1014.69 1014.67 1014.67 1014.66 1014.62 1014.52 1014.37 1014.15 1013.88 1013.58 1013.27 1012.98 1012.75 1012.58 1012.48 1012.47 1012.52 1012.61 1012.72 1012.84 1012.94 1013.01 1013.06 1013.08
1016.53 1016.63 1016.70 1016.74 1016.76 1016.76 1016.74 1016.70 1016.64 1016.56 1016.45 1016.29 1016.10 1015.89 1015.65 1015.42 1015.21 1015.04 1014.93 1014.86 1014.84 1014.85 1014.86 1014.85 1014.80 1014.69 1014.52 1014.29 1014.02 1013.73 1013.44 1013.19 1012.98 1012.85 1012.78 1012.78 1012.83 1012.91 1013.01 1013.10 1013.17 1013.22 1013.25
1016.71 1016.80 1016.86 1016.90 1016.93 1016.94 1016.95 1016.95 1016.93 1016.88 1016.81 1016.68 1016.52 1016.31 1016.08 1015.84 1015.61 1015.41 1015.27 1015.17 1015.13 1015.12 1015.14 1015.15 1015.12 1015.05 1014.92 1014.72 1014.48 1014.20 1013.91 1013.64 1013.41 1013.23 1013.11 1013.06 1013.06 1013.10 1013.16 1013.23 1013.29 1013.34 1013.38
1016.87 1016.94 1016.99 1017.03 1017.06 1017.10 1017.14 1017.18 1017.22 1017.24 1017.21 1017.15 1017.03 1016.85 1016.64 1016.40 1016.16 1015.95 1015.77 1015.64 1015.56 1015.53 1015.52 1015.52 1015.51 1015.45 1015.34 1015.17 1014.94 1014.67 1014.39 1014.10 1013.83 1013.60 1013.43 1013.32 1013.26 1013.25 1013.28 1013.32 1013.37 1013.41 1013.45
1016.96 1017.01 1017.05 1017.08 1017.13 1017.19 1017.27 1017.36 1017.46 1017.54 1017.60 1017.60 1017.54 1017.42 1017.25 1017.03 1016.80 1016.57 1016.37 1016.21 1016.09 1016.02 1015.99 1015.96 1015.93 1015.87 1015.77 1015.60 1015.38 1015.11 1014.82 1014.50 1014.20 1013.93 1013.70 1013.53 1013.42 1013.36 1013.34 1013.35 1013.39 1013.43 1013.46
1016.98 1017.01 1017.03 1017.05 1017.10 1017.18 1017.29 1017.43 1017.59 1017.74 1017.86 1017.94 1017.95 1017.90 1017.78 1017.60 1017.39 1017.17 1016.96 1016.77 1016.63 1016.52 1016.45 1016.39 1016.34 1016.26 1016.14 1015.97 1015.75 1015.47 1015.15 1014.81 1014.48 1014.16 1013.88 1013.66 1013.49 1013.39 1013.33 1013.32 1013.34 1013.38 1013.42
1016.91 1016.92 1016.91 1016.92 1016.96 1017.05 1017.18 1017.35 1017.54 1017.75 1017.94 1018.08 1018.17 1018.18 1018.12 1018.00 1017.82 1017.62 1017.41 1017.21 1017.05 1016.91 1016.81 1016.72 1016.64 1016.54 1016.40 1016.22 1015.98 1015.69 1015.36 1015.00 1014.63 1014.27 1013.95 1013.68 1013.48 1013.33 1013.25 1013.22 1013.24 1013.28 1013.34
1016.75 1016.73 1016.70 1016.69 1016.72 1016.80 1016.93 1017.11 1017.33 1017.56 1017.79 1017.99 1018.13 1018.20 1018.20 1018.12 1017.99 1017.82 1017.63 1017.43 1017.26 1017.11 1016.98 1016.88 1016.77 1016.66 1016.51 1016.32 1016.07 1015.77 1015.43 1015.05 1014.66 1014.27 1013.92 1013.62 1013.38 1013.21 1013.11 1013.07 1013.09 1013.14 1013.21
1016.52 1016.48 1016.43 1016.40 1016.41 1016.47 1016.58 1016.75 1016.97 1017.21 1017.45 1017.67 1017.85 1017.96 1018.01 1017.98 1017.89 1017.75 1017.58 1017.41 1017.24 1017.09 1016.96 1016.85 1016.74 1016.62 1016.47 1016.28 1016.04 1015.75 1015.40 1015.02 1014.62 1014.23 1013.86 1013.53 1013.27 1013.07 1012.96 1012.91 1012.92 1012.98 1013.08
1016.24 1016.19 1016.14 1016.09 1016.08 1016.12 1016.21 1016.35 1016.55 1016.77 1017.01 1017.23 1017.42 1017.55 1017.62 1017.62 1017.57 1017.46 1017.32 1017.17 1017.03 1016.89 1016.78 1016.68 1016.59 1016.48 1016.36 1016.19 1015.97 1015.70 1015.38 1015.01 1014.62 1014.22 1013.83 1013.49 1013.21 1012.99 1012.86 1012.80 1012.80 1012.86 1012.96
1015.92 1015.89 1015.84 1015.80 1015.78 1015.80 1015.86 1015.98 1016.14 1016.34 1016.55 1016.75 1016.93 1017.07 1017.15 1017.17 1017.14 1017.06 1016.96 1016.83 1016.72 1016.61 1016.53 1016.46 1016.40 1016.34 1016.26 1016.13 1015.96 1015.73 1015.44 1015.10 1014.73 1014.33 1013.95 1013.59 1013.29 1013.05 1012.88 1012.79 1012.77 1012.81 1012.90
1015.60 1015.59 1015.57 1015.54 1015.52 1015.54 1015.58 1015.68 1015.81 1015.97 1016.16 1016.34 1016.50 1016.63 1016.71 1016.74 1016.73 1016.67 1016.59 1016.50 1016.42 1016.36 1016.31 1016.29 1016.28 1016.28 1016.25 1016.19 1016.08 1015.91 1015.67 1015.37 1015.03 1014.65 1014.26 1013.89 1013.56 1013.28 1013.07 1012.94 1012.87 1012.87 1012.92
1015.24 1015.28 1015.30 1015.30 1015.30 1015.32 1015.37 1015.45 1015.57 1015.71 1015.87 1016.03 1016.18 1016.30 1016.38 1016.42 1016.42 1016.39 1016.33 1016.27 1016.23 1016.20 1016.21 1016.24 1016.29 1016.35 1016.39 1016.40 1016.37 1016.26 1016.09 1015.84 1015.53 1015.17 1014.79 1014.40 1014.04 1013.72 1013.45 1013.25 1013.12 1013.05 1013.04
1014.83 1014.93 1014.99 1015.04 1015.07 1015.11 1015.17 1015.26 1015.37 1015.51 1015.67 1015.83 1015.97 1016.09 1016.18 1016.23 1016.25 1016.24 1016.21 1016.18 1016.16 1016.18 1016.23 1016.31 1016.42 1016.54 1016.65 1016.74 1016.78 1016.75 1016.64 1016.45 1016.18 1015.85 1015.47 1015.07 1014.67 1014.30 1013.97 1013.70 1013.49 1013.34 1013.24
1014.33 1014.48 1014.59 1014.68 1014.76 1014.83 1014.92 1015.03 1015.16 1015.31 1015.48 1015.65 1015.81 1015.95 1016.06 1016.14 1016.18 1016.19 1016.19 1016.19 1016.20 1016.25 1016.34 1016.46 1016.62 1016.79 1016.97 1017.12 1017.22 1017.26 1017.22 1017.08 1016.86 1016.56 1016.19 1015.79 1015.36 1014.95 1014.57 1014.23 1013.94 1013.71 1013.53
1013.70 1013.89 1014.05 1014.18 1014.29 1014.41 1014.52 1014.66 1014.82 1015.01 1015.21 1015.41 1015.61 1015.78 1015.93 1016.03 1016.11 1016.16 1016.19 1016.22 1016.26 1016.33 1016.44 1016.59 1016.78 1016.99 1017.21 1017.41 1017.57 1017.67 1017.68 1017.60 1017.43 1017.17 1016.83 1016.43 1016.00 1015.56 1015.14 1014.75 1014.40 1014.10 1013.85
1012.93 1013.16 1013.35 1013.51 1013.66 1013.80 1013.95 1014.12 1014.31 1014.53 1014.77 1015.02 1015.26 1015.49 1015.68 1015.84 1015.96 1016.05 1016.12 1016.18 1016.24 1016.33 1016.46 1016.62 1016.82 1017.05 1017.29 1017.53 1017.72 1017.86 1017.93 1017.90 1017.78 1017.56 1017.26 1016.89 1016.48 1016.05 1015.61 1015.20 1014.82 1014.48 1014.18
1012.05 1012.30 1012.51 1012.69 1012.86 1013.02 1013.19 1013.39 1013.61 1013.87 1014.15 1014.45 1014.75 1015.03 1015.28 1015.50 1015.67 1015.81 1015.91 1016.00 1016.09 1016.19 1016.32 1016.48 1016.68 1016.91 1017.16 1017.40 1017.62 1017.79 1017.89 1017.91 1017.84 1017.68 1017.43 1017.11 1016.74 1016.34 1015.93 1015.53 1015.15 1014.80 1014.48
Thickness
5682 5681 5680 5679 5678 5676 5675 5674 5674 5674 5676 5677 5679 5680 5683 5685 5687 5688 5691 5692 5694 5697 5699 5700 5701 5702 5701 5702 5702 5701 5700 5698 5693 5696 5700 5700 5697 5696 5691 5690 5688 5683 5681
5671 5671 5671 5669 5668 5668 5666 5665 5665 5665 5667 5669 5671 5673 5675 5677 5678 5680 5682 5686 5687 5688 5690 5692 5694 5696 5696 5696 5696 5696 5696 5696 5693 5691 5692 5693 5692 5691 5690 5688 5688 5687 5686
5660 5660 5659 5660 5658 5658 5657 5657 5657 5658 5659 5661 5663 5664 5666 5668 5670 5672 5674 5676 5678 5679 5680 5682 5684 5686 5688 5689 5690 5690 5691 5694 5692 5688 5687 5689 5688 5688 5686 5686 5687 5685 5685
5651 5650 5649 5649 5649 5649 5649 5648 5649 5650 5650 5651 5653 5654 5656 5658 5660 5662 5664 5666 5667 5668 5669 5670 5672 5675 5677 5680 5683 5684 5685 5686 5686 5683 5682 5683 5682 5682 5681 5680 5679 5680 5681
5642 5641 5641 5641 5640 5639 5639 5639 5639 5639 5640 5640 5642 5644 5646 5647 5647 5648 5652 5654 5655 5656 5658 5659 5660 5661 5662 5666 5672 5674 5676 5677 5678 5677 5676 5676 5676 5675 5674 5674 5672 5673 5674
5629 5629 5629 5629 5629 5628 5628 5627 5627 5628 5629 5630 5631 5632 5633 5633 5629 5631 5636 5641 5643 5645 5647 5648 5649 5651 5651 5653 5655 5658 5661 5666 5667 5668 5668 5668 5668 5669 5668 5667 5666 5664 5663
5617 5616 5616 5615 5615 5614 5615 5615 5615 5615 5616 5618 5619 5619 5619 5616 5615 5617 5620 5627 5630 5631 5634 5637 5639 5639 5641 5644 5645 5647 5650 5651 5653 5660 5659 5659 5659 5659 5659 5659 5659 5658 5659
5604 5603 5602 5602 5601 5600 5599 5599 5599 5601 5602 5603 5604 5606 5606 5604 5602 5604 5607 5613 5616 5617 5620 5624 5626 5628 5628 5631 5635 5638 5640 5641 5644 5648 5648 5648 5648 5649 5651 5651 5651 5652 5653
5593 5592 5590 5589 5588 5586 5585 5584 5584 5585 5586 5588 5591 5592 5593 5591 5589 5591 5594 5601 5602 5604 5606 5608 5613 5615 5612 5616 5625 5626 5627 5628 5628 5629 5631 5633 5634 5637 5640 5643 5643 5644 5644
5584 5582 5580 5579 5577 5575 5573 5571 5571 5572 5572 5575 5577 5579 5580 5580 5577 5579 5581 5591 5590 5594 5594 5596 5594 5597 5598 5602 5612 5614 5614 5617 5620 5622 5621 5622 5626 5628 5630 5633 5636 5637 5637
5574 5572 5570 5568 5566 5564 5563 5562 5561 5562 5562 5563 5565 5568 5568 5567 5565 5566 5568 5575 5579 5581 5583 5585 5583 5582 5585 5589 5594 5599 5598 5602 5610 5613 5615 5617 5620 5621 5623 5624 5626 5630 5630
5564 5562 5560 5558 5558 5556 5555 5554 5554 5553 5554 5554 5555 5557 5558 5557 5554 5554 5556 5558 5561 5566 5568 5570 5569 5568 5571 5575 5580 5581 5585 5590 5601 5603 5605 5606 5609 5611 5612 5613 5614 5616 5619
5555 5553 5551 5550 5549 5548 5547 5546 5546 5545 5545 5545 5545 5546 5548 5548 5546 5544 5545 5547 5548 5551 5553 5550 5552 5555 5558 5563 5565 5569 5575 5583 5588 5591 5593 5594 5597 5598 5601 5602 5604 5605 5608
5548 5547 5545 5544 5542 5541 5539 5538 5537 5536 5536 5536 5535 5537 5538 5538 5537 5537 5538 5538 5537 5540 5542 5542 5541 5544 5547 5549 5554 5560 5565 5568 5571 5576 5580 5584 5586 5589 5592 5595 5598 5600 5601
5546 5544 5542 5540 5538 5534 5532 5530 5528 5526 5525 5524 5525 5525 5526 5526 5522 5520 5525 5527 5526 5526 5528 5533 5537 5541 5543 5546 5548 5550 5553 5557 5560 5564 5568 5572 5576 5579 5581 5583 5584 5589 5591
5543 5541 5540 5538 5534 5532 5528 5525 5517 5517 5514 5512 5511 5511 5514 5511 5510 5510 5511 5513 5514 5515 5517 5518 5520 5525 5529 5534 5538 5542 5545 5547 5549 5552 5556 5559 5563 5567 5571 5573 5574 5577 5579
5538 5537 5537 5535 5532 5528 5526 5523 5519 5511 5505 5503 5503 5502 5501 5500 5500 5499 5500 5501 5503 5505 5510 5509 5508 5509 5512 5517 5523 5529 5533 5538 5538 5542 5546 5550 5553 5556 5559 5562 5564 5566 5569
5535 5531 5530 5529 5528 5527 5523 5520 5518 5515 5511 5507 5498 5494 5491 5490 5489 5489 5489 5490 5499 5501 5505 5505 5503 5502 5502 5503 5507 5512 5518 5524 5530 5533 5537 5541 5544 5547 5551 5554 5557 5558 5560
5532 5531 5527 5525 5523 5521 5518 5516 5514 5509 5506 5503 5500 5491 5484 5483 5480 5479 5479 5486 5493 5496 5496 5495 5494 5493 5493 5494 5495 5497 5502 5507 5513 5519 5525 5528 5533 5537 5541 5545 5548 5549 5549
5526 5518 5517 5519 5518 5515 5512 5509 5506 5502 5498 5496 5492 5489 5482 5480 5481 5480 5477 5478 5479 5480 5480 5480 5479 5478 5479 5479 5481 5485 5489 5493 5497 5503 5509 5513 5519 5524 5529 5532 5536 5539 5541
5528 5520 5509 5511 5513 5509 5505 5501 5497 5493 5490 5487 5483 5476 5462 5467 5470 5469 5467 5465 5463 5462 5461 5461 5462 5461 5461 5462 5466 5468 5472 5476 5480 5484 5490 5495 5501 5506 5512 5517 5521 5524 5527
5526 5523 5516 5513 5509 5504 5500 5496 5491 5488 5484 5479 5475 5469 5454 5457 5460 5458 5454 5450 5446 5444 5442 5441 5442 5443 5443 5445 5446 5449 5452 5456 5460 5463 5468 5474 5479 5486 5492 5498 5503 5507 5510
5523 5520 5516 5511 5505 5497 5491 5491 5487 5482 5477 5472 5467 5461 5456 5451 5447 5443 5439 5434 5430 5427 5425 5424 5423 5425 5425 5425 5426 5428 5432 5436 5438 5440 5444 5451 5457 5463 5469 5475 5480 5486 5492
5523 5519 5515 5511 5505 5500 5495 5489 5483 5477 5471 5465 5459 5452 5446 5440 5434 5429 5424 5420 5416 5413 5410 5408 5407 5407 5406 5406 5407 5410 5411 5412 5412 5418 5423 5428 5435 5441 5447 5452 5458 5463 5469
5525 5520 5515 5511 5505 5499 5493 5486 5480 5472 5465 5459 5451 5445 5438 5431 5425 5420 5415 5410 5405 5402 5399 5395 5394 5393 5392 5391 5392 5392 5391 5391 5392 5396 5401 5409 5415 5420 5425 5430 5436 5441 5447
5525 5521 5516 5511 5504 5497 5490 5484 5477 5469 5462 5454 5447 5439 5432 5425 5419 5413 5407 5402 5398 5394 5391 5388 5385 5383 5381 5380 5380 5378 5377 5376 5377 5379 5383 5390 5397 5402 5405 5409 5414 5419 5425